Location: Dana
(41.8364°N, 106.7042°W)
Time: 14:17:00
(UTC+00:00)

SR - Pass Details

Date: 17 May 2026
Orbit: 567 x 853 km, 66.7° (Epoch: 7 June)

Event Time Altitude Azimuth Distance (km) Brightness Sun altitude
Rises 14:24:15 0° 233° (SW) 2,984 ? 27.7°
Reaches altitude 10° 14:26:37 10° 242° (WSW) 2,121 ? 28.1°
Maximum altitude 14:31:05 36° 309° (NW) 1,130 ? 29.0°
Drops below altitude 10° 14:35:57 10° 16° (NNE) 2,310 ? 29.9°
Sets 14:38:38 0° 25° (NNE) 3,286 ? 30.4°
